Home   Weather   Locarno   Past weeks

Flag for Switzerland Past Weather in Locarno, Ticino, Switzerland — Yesterday and Last 2 Weeks

Now
48 °F

Cool.


Feels Like: 48 °F
Forecast: 36 / 40 °F
Wind: 2 mph from South

Location: Locarno-Monti

Current Time: Apr 26, 2017 at 2:23:37 pm

Latest Report: Apr 26, 2017 at 1:00 pm


Visibility: N/A

Pressure: 29.78 "Hg

Humidity: 97%

Dew Point: 47 °F

Location of LocarnoLocation

Past Weather in Locarno — Graph

°F

Locarno Temperature Yesterday

Maximum temperature yesterday: 53 °F (at 9:00 pm)
Minimum temperature yesterday: 50 °F (at 7:00 am)
Average temperature yesterday: 52 °F

High & Low Weather Summary for the Past Weeks

 TemperatureHumidityPressure
High78 °F (Apr 13, 6:00 pm)100% (Apr 25, 4:00 am)30.45 "Hg (Apr 25, 4:00 am)
Low39 °F (Apr 20, 7:00 am)6% (Apr 20, 3:00 pm)29.73 "Hg (Apr 13, 6:00 pm)
Average57 °F46%30.02 "Hg
* Reported Apr 11 1:00 pm — Apr 26 1:00 pm, Locarno, Weather by CustomWeather, © 2017

Note: Actual official high and low records may vary slightly from our data, if they occured in-between our weather recording intervals... More about our weather records

Advertising

Locarno Weather History for the Previous 24 Hours

Scroll right to see more
 ConditionsComfort  
Time TempWeatherWind HumidityBarometerVisibility
1:00 pm
Wed, Apr 26
48 °FCool.2 mph97%29.78 "HgN/A
12:00 pm48 °FCool.1 mph94%29.80 "HgN/A
11:00 am48 °FRain. Low clouds.3 mph96%29.78 "Hg4 mi
10:00 am48 °FCool.1 mph97%29.77 "HgN/A
9:00 am48 °FCool.5 mph97%29.77 "HgN/A
8:00 am48 °FRain. Low clouds.1 mph96%29.77 "Hg2 mi
7:00 am49 °FCool.2 mph98%29.75 "HgN/A
6:00 am49 °FCool.2 mph99%29.75 "HgN/A
5:00 am50 °FCool.2 mph98%29.75 "HgN/A
4:00 am51 °FCool.6 mph90%29.77 "HgN/A
3:00 am51 °FCool.3 mph95%29.79 "HgN/A
2:00 am51 °FCool.6 mph94%29.80 "HgN/A
1:00 am51 °FCool.6 mph96%29.80 "HgN/A
12:00 am51 °FCool.3 mph97%29.80 "HgN/A
11:00 pm
Tue, Apr 25
52 °FCool.7 mph91%29.81 "HgN/A
10:00 pm53 °FCool.6 mph84%29.82 "HgN/A
9:00 pm53 °FCool.7 mph90%29.79 "HgN/A
8:00 pm53 °FRain. Low clouds.2 mph93%29.79 "Hg2 mi
7:00 pm52 °FCool.3 mph98%29.79 "HgN/A
6:00 pm52 °FCool.3 mph99%29.82 "HgN/A
5:00 pm51 °FRain. Dense fog.2 mph99%29.85 "Hg1 mi
4:00 pm52 °FCool.2 mph98%29.87 "HgN/A
3:00 pm52 °FCool.2 mph96%29.89 "HgN/A
2:00 pm51 °FDrizzle. Low clouds.2 mph98%29.92 "Hg7 mi
Weather by CustomWeather, © 2017

See weather overviewHow to use our weather pages